Location: B?ezina
(49.8085°N, 13.6013°E)
Time: 22:03:23
(UTC+00:00)

NOSS 2-1 (D) - Pass Details

Date: 19 May 2025
Orbit: 378 x 1697 km, 63.3° (Epoch: 15 June)

Event Time Altitude Azimuth Distance (km) Brightness Sun altitude
Exits shadow 22:36:15 44° 268° (W) 577 3.4 -20.0°
Maximum altitude 22:36:54 55° 315° (NW) 488 3.2 -20.0°
Drops below altitude 10° 22:39:51 10° 36° (NE) 1,406 6.1 -20.0°
Sets 22:41:49 0° 41° (NE) 2,262 7.1 -20.1°
